Zurück zum Katalog

HULIANWANG DIGUI-46

AktivKommunikationLEO
NORAD 65049·PAYLOAD·🇨🇳 China

Gestartet Jul 30, 2025 von Wenchang Space Launch Site

Loading…

Nächste Überflüge (nächste 24 Stunden)

TLE

AktuellSource: Space-Track

Epoche: Sep 14, 2026, 21:07 UTC

1 65049U 25162G   26257.88017988 -.00000087  00000-0  79071-4 0  9995
2 65049  50.0070 304.0037 0000698 263.5550  96.5242 13.29330621 55293

Verfolge HULIANWANG DIGUI-46 in Echtzeit mit AllMySat

Download on the App Store